Skip Page Navigation
NASA JPL Caltech
NASA Logo - Jet Propulsion Laboratory + View the NASA Portal
+ Center for Near-Earth Object Studies
JPL Home Earth Solar System Stars & Galaxies Technology
JPL Solar System Dynamics
BODIES ORBITS EPHEMERIDES TOOLS PHYSICAL DATA DISCOVERY FAQ SITE MAP
JPL Small-Body Database Browser
Search: [ help ]  
233469 (2006 KQ89)
Classification: Main-belt Asteroid          SPK-ID: 2233469
Ephemeris | Orbit Diagram | Orbital Elements | Mission Design | Physical Parameters | Discovery Circumstances | Close-Approach Data ]

[ hide orbit diagram ]

For accurate long-term ephemerides, please instead use our Horizons system.This orbit viewer was implemented using two-body methods, and hence should not be used for determining accurate long-term trajectories (over several years or decades) or planetary encounter circumstances.


Orbital Elements at Epoch 2459396.5 (2021-Jul-01.0) TDB
Reference: JPL 12 (heliocentric ecliptic J2000)
 Element Value Uncertainty (1-sigma)   Units 
e .1644371307266952 8.1966e-08  
a 2.667839829864223 1.9776e-08 au
q 2.229147903002956 2.159e-07 au
i 15.22519177868014 6.0234e-06 deg
node 91.97791549028575 2.7153e-05 deg
peri 118.7504619659219 3.2331e-05 deg
M 186.5571030112716 1.5822e-05 deg
tp 2460163.317601597071
(2023-Aug-06.81760160)
7.1417e-05 TDB
period 1591.615115797366
4.36
1.7697e-05
4.845e-08
d
yr
n .226185336157509 2.515e-09 deg/d
Q 3.106531756725491 2.3028e-08 au
  Orbit Determination Parameters
   # obs. used (total)      226  
   data-arc span      6733 days (18.43 yr)  
   first obs. used      2002-05-11  
   last obs. used      2020-10-16  
   planetary ephem.      DE441  
   SB-pert. ephem.      SB441-N16  
   condition code      0  
   norm. resid. RMS      .61363  
   source      ORB  
   producer      Otto Matic  
   solution date      2021-Apr-14 01:03:41  

Additional Information
 Earth MOID = 1.26397 au 
 Jupiter MOID = 2.02015 au 
 T_jup = 3.313 
[ show covariance matrix ]

Ephemeris | Orbit Diagram | Orbital Elements | Mission Design | Physical Parameters | Discovery Circumstances | Close-Approach Data ]

Physical Parameter Table
Parameter Symbol Value Units Sigma Reference Notes
absolute magnitude H 16.50   n/a E2021B55  

233469 (2006 KQ89)          Discovered 2006-May-29 by Lowe, A. at Mayhill
Reference: 20100228/Numbers.arcLast Updated: 2010-03-03

[ show close-approach data ]
Alternate Designations
 2006 KQ89 = 2004 XA29 
Ephemeris | Orbit Diagram | Orbital Elements | Mission Design | Physical Parameters | Discovery Circumstances | Close-Approach Data ]
ABOUT SSD CREDITS/AWARDS PRIVACY/COPYRIGHT GLOSSARY LINKS
FirstGov 2021-Jul-29 19:46 UT
(server date/time)  
NASA Home Page
Site Manager:   Ryan S. Park
Webmaster  Alan B. Chamberlin